Precipitable_Water
1.03 1.08 1.12 1.23 1.38 1.44 1.49 1.52 1.63 1.68 1.73 1.80 1.70 1.60 1.51 1.54 1.51 1.44 1.40 1.41 1.39 1.32 1.21 1.18 1.12 1.11 1.08 1.06 1.02 1.01 1.02 1.02
1.00 1.03 1.16 1.31 1.36 1.46 1.56 1.51 1.49 1.58 1.73 1.60 1.73 1.64 1.62 1.57 1.64 1.60 1.48 1.44 1.37 1.26 1.22 1.18 1.10 1.05 1.04 1.05 0.99 1.03 1.00 1.03
0.96 0.99 1.14 1.27 1.34 1.40 1.47 1.48 1.48 1.50 1.56 1.50 1.58 1.66 1.66 1.65 1.67 1.69 1.58 1.43 1.29 1.18 1.17 1.17 1.06 1.02 1.04 1.06 0.98 0.97 1.05 1.06
0.91 0.96 1.05 1.18 1.25 1.31 1.31 1.35 1.36 1.42 1.49 1.46 1.55 1.57 1.63 1.62 1.59 1.65 1.62 1.44 1.28 1.20 1.09 1.08 1.03 1.00 1.04 1.01 0.97 1.03 0.99 0.97
0.90 0.91 1.00 1.07 1.12 1.19 1.26 1.27 1.29 1.36 1.42 1.48 1.44 1.49 1.59 1.64 1.54 1.63 1.57 1.40 1.23 1.19 1.09 1.05 1.01 0.96 0.98 0.99 0.99 1.03 0.92 0.91
0.86 0.88 0.94 1.00 1.08 1.15 1.15 1.22 1.32 1.35 1.41 1.42 1.45 1.53 1.60 1.52 1.52 1.53 1.54 1.33 1.22 1.16 1.06 1.06 1.00 0.99 1.01 1.03 1.02 0.98 0.84 0.83
0.84 0.90 0.91 0.93 0.97 1.08 1.10 1.19 1.30 1.40 1.44 1.51 1.54 1.58 1.53 1.50 1.48 1.56 1.51 1.36 1.28 1.11 1.02 0.98 0.99 1.05 1.05 1.11 1.01 1.00 0.80 0.80
0.87 0.90 0.93 0.91 0.90 0.98 1.07 1.23 1.33 1.38 1.42 1.51 1.58 1.55 1.50 1.49 1.51 1.51 1.44 1.37 1.28 1.18 1.01 0.94 0.96 1.03 1.02 1.08 1.11 0.92 0.86 0.83
0.89 0.91 0.93 0.87 0.87 0.94 1.05 1.25 1.32 1.36 1.48 1.57 1.54 1.51 1.50 1.51 1.53 1.50 1.40 1.30 1.19 1.06 1.04 0.99 0.98 0.98 0.99 1.05 1.05 0.95 0.95 0.85
0.98 0.96 0.89 0.86 0.89 0.91 1.12 1.26 1.32 1.36 1.53 1.59 1.58 1.56 1.56 1.53 1.50 1.47 1.36 1.20 1.10 1.03 1.03 1.00 0.99 0.96 1.01 0.94 1.01 1.03 1.00 0.90
1.01 0.96 0.84 0.84 0.88 0.96 1.14 1.25 1.30 1.38 1.52 1.56 1.58 1.58 1.59 1.53 1.50 1.41 1.33 1.11 1.08 1.03 0.94 0.95 0.90 0.93 0.94 1.04 1.07 1.04 0.99 0.97
1.06 0.97 0.83 0.82 0.88 0.96 1.11 1.21 1.29 1.42 1.49 1.52 1.56 1.60 1.57 1.56 1.51 1.41 1.22 0.99 1.08 1.02 0.94 0.97 0.96 0.97 0.96 0.98 1.02 1.08 1.04 1.02
1.00 0.94 0.80 0.76 0.79 0.85 0.98 1.08 1.24 1.37 1.46 1.54 1.57 1.56 1.56 1.51 1.39 1.31 1.07 0.91 0.98 1.01 0.98 0.96 0.97 1.03 0.93 0.98 0.98 1.11 1.11 1.05
1.01 0.92 0.77 0.74 0.80 0.87 1.05 1.17 1.30 1.38 1.46 1.49 1.52 1.53 1.54 1.48 1.37 1.28 1.07 0.99 0.99 1.04 1.03 1.01 1.02 1.08 0.96 0.90 0.79 0.92 1.03 1.11
0.98 0.92 0.79 0.74 0.83 0.89 1.10 1.18 1.27 1.30 1.35 1.42 1.50 1.50 1.47 1.42 1.41 1.33 1.14 1.04 0.99 1.02 1.03 1.03 0.97 1.07 1.01 0.87 0.74 0.73 0.86 1.08
1.00 0.94 0.84 0.72 0.83 0.82 0.99 1.01 1.07 1.21 1.29 1.39 1.44 1.50 1.50 1.49 1.44 1.36 1.25 1.08 1.01 0.95 0.95 0.96 0.97 0.88 0.96 0.96 0.91 0.90 0.77 0.77
1.00 0.97 0.87 0.69 0.79 0.83 0.90 1.03 1.11 1.20 1.27 1.31 1.39 1.44 1.48 1.48 1.45 1.38 1.32 1.22 1.10 0.93 0.97 0.89 1.00 0.96 0.91 0.86 0.85 0.90 0.91 0.83
0.99 0.98 0.87 0.69 0.74 0.82 0.86 0.92 1.00 1.05 1.14 1.20 1.28 1.37 1.43 1.44 1.43 1.44 1.39 1.28 1.14 1.03 1.01 0.99 1.03 1.01 0.96 0.92 0.87 0.85 0.84 0.85
0.96 0.96 0.90 0.71 0.68 0.77 0.85 0.92 0.96 0.97 1.02 1.07 1.14 1.25 1.31 1.36 1.42 1.39 1.38 1.37 1.29 1.11 1.14 1.11 1.06 1.07 1.06 1.03 1.01 0.95 0.98 0.89
0.96 0.92 0.91 0.77 0.69 0.74 0.81 0.89 0.93 0.95 0.96 1.00 1.08 1.15 1.27 1.37 1.40 1.39 1.38 1.38 1.36 1.29 1.16 1.18 1.17 1.13 1.09 1.12 1.09 1.04 1.02 0.95
Wind_Speed
17 17 18 18 19 20 21 21 22 22 23 29 25 27 26 24 21 20 20 20 21 22 22 22 21 20 19 17 16 15 14 13
16 17 17 17 18 18 19 20 21 22 18 17 26 25 21 26 26 20 20 19 20 22 23 23 22 20 19 17 16 15 14 13
16 16 15 15 15 16 17 18 20 22 24 23 25 32 26 22 23 23 21 19 19 22 24 23 22 21 19 17 16 16 15 13
14 14 13 13 12 13 16 17 18 20 22 22 21 22 25 23 22 24 23 20 20 21 24 23 22 21 19 17 16 15 14 14
14 13 12 12 12 12 15 16 18 20 23 24 25 24 26 23 24 27 25 22 21 21 23 24 22 21 19 18 15 14 14 14
13 13 13 13 13 14 15 17 18 20 22 24 25 25 23 24 25 29 27 24 21 22 23 24 23 21 20 17 16 14 15 16
13 13 13 14 14 15 16 17 18 19 21 23 26 26 24 23 24 32 29 26 23 23 24 24 24 22 20 17 16 15 16 16
14 13 13 13 14 15 16 16 17 18 20 23 26 26 25 25 24 30 30 28 25 23 24 25 23 23 20 18 17 16 16 17
13 13 13 13 13 14 15 16 16 16 20 23 26 27 27 27 27 31 31 28 25 24 25 25 23 23 21 20 18 18 18 18
13 13 13 13 13 13 14 15 15 16 18 23 27 28 29 28 27 32 30 29 26 26 26 25 24 23 21 21 19 19 18 18
13 12 12 12 12 12 12 13 14 15 18 20 25 29 30 29 31 31 29 28 27 26 26 27 25 24 22 22 20 20 19 19
13 11 11 11 10 10 11 12 13 13 16 18 23 29 30 29 33 31 29 28 27 26 26 26 26 24 23 23 21 21 20 20
13 11 10 9 8 9 9 11 11 12 12 11 18 28 33 31 30 29 28 28 27 26 25 26 24 25 23 21 22 21 21 21
13 11 10 9 8 8 9 10 11 12 12 10 13 23 29 29 27 28 28 28 28 27 26 25 24 26 25 23 22 22 23 23
14 11 9 9 8 7 6 8 10 11 13 14 17 20 24 27 27 28 27 29 29 27 27 27 23 26 27 24 23 22 23 25
14 11 9 8 8 6 7 8 9 11 13 15 17 23 24 26 28 29 29 28 29 28 29 28 27 26 26 25 25 23 22 22
15 11 10 9 8 7 7 9 9 9 12 15 18 22 26 27 29 30 31 30 30 30 29 30 28 28 27 26 25 25 24 23
16 13 10 9 9 8 8 8 9 10 10 12 15 20 26 27 26 31 30 29 30 31 31 31 31 29 29 28 27 25 25 25
17 15 12 11 10 9 8 8 8 9 10 12 13 17 23 26 26 30 29 28 29 31 31 31 31 31 31 30 30 28 26 26
17 16 13 11 10 9 9 8 8 8 7 8 10 11 19 22 25 25 28 27 28 32 32 32 32 32 32 32 31 31 30 28
Wind_Direction
269 269 269 268 262 255 249 244 240 242 243 228 222 221 216 213 209 206 205 205 206 204 201 198 197 198 197 196 197 200 201 201
270 271 269 269 265 255 245 243 241 240 228 226 221 219 214 213 213 208 201 204 203 200 198 196 196 196 197 199 201 200 199 200
272 271 269 268 263 253 246 244 241 237 235 235 234 230 220 214 201 205 206 202 195 196 194 194 196 196 198 198 198 200 201 207
273 271 266 264 262 251 247 242 240 235 232 230 228 210 209 210 223 207 201 200 196 194 193 193 195 196 196 196 198 203 209 204
271 267 263 262 261 256 247 245 243 239 237 233 227 221 221 217 217 206 203 201 198 193 193 195 196 196 195 196 201 204 206 203
268 266 262 262 262 258 255 251 248 245 237 231 223 216 214 213 216 204 203 200 195 196 196 196 196 195 198 203 207 209 203 198
265 267 264 262 263 260 257 254 251 243 234 225 216 215 215 216 204 200 203 201 200 198 198 198 199 201 203 207 206 204 199 197
263 265 266 265 266 262 258 255 248 240 232 223 214 213 214 209 205 202 203 203 202 203 201 199 201 201 203 204 205 204 203 201
261 264 267 268 268 264 260 253 246 241 230 220 217 215 211 210 209 208 202 203 203 202 199 198 199 199 203 206 206 207 205 203
261 266 268 268 268 267 259 253 244 241 230 222 219 215 211 210 204 197 201 202 203 200 199 200 201 204 206 206 209 207 209 209
258 265 267 266 269 266 259 249 242 243 228 224 221 214 208 208 200 196 200 202 201 201 202 202 204 206 208 210 213 213 215 216
253 262 265 264 267 264 256 246 245 235 227 233 223 208 203 199 194 196 201 200 199 199 201 205 208 210 211 214 215 217 219 222
245 256 260 257 262 263 254 244 235 222 220 229 205 197 197 191 193 197 199 198 199 200 202 206 210 210 209 214 219 222 225 226
238 250 254 252 260 265 260 234 226 217 215 203 173 177 184 191 194 199 201 202 204 208 211 211 215 215 220 220 223 228 230 232
232 242 248 249 252 260 247 221 218 218 216 212 205 199 199 203 205 204 207 208 213 217 215 217 220 217 220 225 227 233 233 236
226 234 241 244 242 248 229 220 219 223 222 221 219 214 212 213 213 214 214 218 218 220 221 223 221 221 224 230 232 235 236 238
220 227 235 238 236 240 229 221 219 223 228 230 229 224 220 219 220 219 218 221 224 223 224 224 224 226 228 231 235 237 239 242
217 223 231 233 232 233 230 223 223 230 234 236 235 229 222 219 223 218 221 224 225 227 226 228 229 229 232 236 236 238 240 247
216 222 228 228 228 230 228 228 227 234 238 242 240 231 220 222 222 220 221 227 228 228 230 230 230 234 237 238 239 241 243 248
214 219 223 224 226 228 229 230 232 233 238 240 237 229 220 220 220 219 226 231 233 233 231 232 234 239 240 240 240 242 245 247